TimeWEST,TemperatureF,Dew PointF,Humidity,Sea Level PressureIn,VisibilityMPH,Wind Direction,Wind SpeedMPH,Gust SpeedMPH,PrecipitationIn,Events,Conditions,WindDirDegrees,DateUTC
12:00 AM,69.8,59.0,68,30.01,6.2,Variable,2.3,-,N/A,,Scattered Clouds,0,2013-09-16 23:00:00
12:48 AM,68,59,67,29.95,6,SSW,3.5,,,,Scattered Clouds,200,2013-09-16 23:48:00
1:00 AM,68.0,59.0,73,30.01,6.2,SSW,3.5,-,N/A,,Scattered Clouds,200,2013-09-17 00:00:00
3:00 AM,66.2,59.0,78,29.98,6.2,WSW,5.8,-,N/A,,Scattered Clouds,250,2013-09-17 02:00:00
4:00 AM,66,59,72,29.94,6,SW,8.1,,,,Scattered Clouds,230,2013-09-17 03:00:00
6:00 AM,66.2,59.0,78,29.98,6.2,SW,5.8,-,N/A,,Mostly Cloudy,220,2013-09-17 05:00:00
6:45 AM,66,58,70,29.95,6,SW,5.8,,,,Scattered Clouds,220,2013-09-17 05:45:00
9:00 AM,77.0,62.6,61,30.01,-9999.0,SW,10.4,-,N/A,,Clear,220,2013-09-17 08:00:00
10:00 AM,80,62,44,29.93,9,SW,11.5,,,,Clear,230,2013-09-17 09:00:00
10:00 AM,80.6,62.6,54,30.01,-9999.0,SW,11.5,-,N/A,,Clear,230,2013-09-17 09:00:00
11:00 AM,82.4,60.8,48,30.01,-9999.0,West,5.8,-,N/A,,Clear,280,2013-09-17 10:00:00
12:00 PM,84.2,59.0,42,30.01,6.2,North,4.6,-,N/A,,Partly Cloudy,360,2013-09-17 11:00:00
1:00 PM,87,57,26,29.88,9,NNW,2.3,,,,Scattered Clouds,330,2013-09-17 12:00:00
1:00 PM,87.8,59.0,38,29.98,6.2,Variable,1.2,-,N/A,,Partly Cloudy,0,2013-09-17 12:00:00
3:00 PM,87.8,62.6,43,29.95,6.2,North,15.0,-,N/A,,Scattered Clouds,10,2013-09-17 14:00:00
4:00 PM,85,62,36,29.85,6,North,16.1,,,,Partly Cloudy,350,2013-09-17 15:00:00
4:00 PM,86.0,62.6,45,29.95,6.2,North,16.1,-,N/A,,Scattered Clouds,350,2013-09-17 15:00:00
5:00 PM,84.2,60.8,45,29.95,6.2,North,15.0,-,N/A,,Scattered Clouds,350,2013-09-17 16:00:00
6:00 PM,82.4,59.0,45,29.95,6.2,North,16.1,-,N/A,,Scattered Clouds,350,2013-09-17 17:00:00
7:00 PM,79,58,37,,9,North,12.7,,,,Partly Cloudy,350,2013-09-17 18:00:00
8:25 PM,69.8,60.8,73,29.98,6.2,North,5.8,-,N/A,,Scattered Clouds,10,2013-09-17 19:25:00
9:00 PM,69.8,60.8,73,29.98,6.2,NE,6.9,-,N/A,,Scattered Clouds,40,2013-09-17 20:00:00
10:00 PM,69,62,72,29.96,9,SW,3.5,,,,Partly Cloudy,230,2013-09-17 21:00:00
10:00 PM,69.8,62.6,78,30.01,6.2,SW,3.5,-,N/A,,Scattered Clouds,230,2013-09-17 21:00:00
11:00 PM,68.0,62.6,83,30.01,6.2,SW,6.9,-,N/A,,Scattered Clouds,230,2013-09-17 22:00:00